This demonstration page uses our WeatherBlox Daily Observations layout. Learn more.

Left ArrowRight Arrow

36.17497, -115.13722

Hourly Observations for October 7, 2022

Temp ( °F °C ) Dew Point ( °F °C ) Humidity (%) Winds ( mph kmh ) Pressure ( in mb ) Visibility ( mi km ) Precip ( " mm )
12:53 am 00:53 Clear 75 23.9 34 1.1 22 22 W 3 6 30.06 1018 10 16 0.00 0.00
1:53 am 01:53 Clear 73 22.8 37 2.8 27 27 WNW 5 7 30.08 1019 10 16 0.00 0.00
2:53 am 02:53 Clear 75 23.9 35 1.7 23 23 NNE 6 9 30.07 1018 10 16 0.00 0.00
3:53 am 03:53 Clear 71 21.7 36 2.2 28 28 WNW 6 9 30.08 1019 10 16 0.00 0.00
4:53 am 04:53 Clear 70 21.1 37 2.8 30 30 NW 5 7 30.09 1019 10 16 0.00 0.00
5:53 am 05:53 Clear 69 20.6 38 3.3 32 32 WNW 6 9 30.11 1020 10 16 0.00 0.00
6:53 am 06:53 Sunny 69 20.6 39 3.9 33 33 Calm 30.13 1020 10 16 0.00 0.00
7:53 am 07:53 Sunny 72 22.2 42 5.6 34 34 NW 3 6 30.15 1021 10 16 0.00 0.00
8:53 am 08:53 Sunny 79 26.1 43 6.1 28 28 Calm 30.16 1021 10 16 0.00 0.00
9:53 am 09:53 Sunny 83 28.3 39 3.9 21 21 ENE 6 9 30.16 1021 10 16 0.00 0.00
10:53 am 10:53 Sunny 86 30 38 3.3 18 18 NE 3 6 30.14 1021 10 16 0.00 0.00
11:53 am 11:53 Sunny 89 31.7 41 5 19 19 ENE 6 9 30.12 1020 10 16 0.00 0.00
12:53 pm 12:53 Sunny 89 31.7 42 5.6 19 19 ESE 10 17 30.09 1019 10 16 0.00 0.00
1:53 pm 13:53 Sunny 91 32.8 40 4.4 17 17 E 13 20 30.06 1018 10 16 0.00 0.00
2:53 pm 14:53 Sunny 92 33.3 40 4.4 16 16 E 15 24 30.03 1017 10 16 0.00 0.00
3:53 pm 15:53 Sunny 91 32.8 39 3.9 16 16 E 10 17 30.02 1017 10 16 0.00 0.00
4:53 pm 16:53 Sunny 91 32.8 36 2.2 14 14 undefined N/A 30.01 1016 10 16 0.00 0.00
5:53 pm 17:53 Sunny 89 31.7 36 2.2 15 15 E 8 13 30.01 1016 10 16 0.00 0.00
6:53 pm 18:53 Clear 86 30 37 2.8 18 18 SE 5 7 30.03 1017 10 16 0.00 0.00
7:53 pm 19:53 Clear 86 30 38 3.3 18 18 W 3 6 30.04 1017 10 16 0.00 0.00
8:53 pm 20:53 Clear 81 27.2 39 3.9 22 22 NW 7 11 30.06 1018 10 16 0.00 0.00
9:53 pm 21:53 Clear 79 26.1 38 3.3 23 23 NW 8 13 30.06 1018 10 16 0.00 0.00
10:53 pm 22:53 Clear 77 25 38 3.3 24 24 WNW 6 9 30.06 1018 10 16 0.00 0.00
11:53 pm 23:53 Clear 76 24.4 39 3.9 26 26 Calm 30.06 1018 10 16 0.00 0.00

Powered by AerisWeather